Flag for U.S.A. Weather past 2 weeks in St. Petersburg, Florida, U.S.A.

Now
77 °F

Passing clouds.


Feels Like: 78 °F
Forecast: 75 / 84 °F
Wind: 6 mph from North

Location: Whitted Airport

Current Time: Oct 1, 2014 at 9:57:59 AM

Latest Report: Oct 1, 2014 at 9:04 AM


Visibility: 10 mi

Pressure: 29.90 "Hg

Humidity: 94%

Dew point: 75 °F

Location of St. PetersburgLocation

Historic Weather in St. Petersburg — Graph

°F

St. Petersburg temperature yesterday

Maximum temperature yesterday: 83 °F (at 2:53 PM)
Minimum temperature yesterday: 75 °F (at 4:53 AM)
Average temperature yesterday: 79 °F

Past Weeks' High & Low Weather Summary

 TemperatureHumidityPressure
High89 °F (Sep 18, 3:53 PM)100% (Sep 30, 2:53 AM)30.09 "Hg (Sep 30, 2:53 AM)
Low72 °F (Sep 20, 7:53 AM)52% (Sep 18, 3:53 PM)29.78 "Hg (Sep 30, 4:53 PM)
Average78 °F84%29.94 "Hg
* Reported Sep 16 7:53 AM — Oct 1 7:53 AM, St. Petersburg, Weather by CustomWeather, © 2014

Note: Actual official high and low records may vary slightly from our data, if they occured in-between our weather recording intervals... More about our weather records

Advertising

St. Petersburg weather history for previous 24 hours

 ConditionsComfort  
Time TempWeatherWind HumidityBarometerVisibility
7:53 AM
Oct 1
76 °FPassing clouds.8 mph97%29.88 "Hg10 mi
7:01 AM76 °FPassing clouds.6 mph97%29.86 "Hg10 mi
6:00 AM79 °FPassing clouds.6 mph90%29.84 "Hg10 mi
5:03 AM79 °FPassing clouds.7 mph90%29.82 "Hg10 mi
4:53 AM80 °FPartly cloudy.6 mph87%29.81 "Hg10 mi
3:53 AM80 °FPassing clouds.8 mph87%29.80 "Hg10 mi
2:53 AM80 °FPassing clouds.9 mph87%29.81 "Hg10 mi
1:53 AM79 °FLight rain. Overcast.10 mph90%29.82 "Hg10 mi
12:53 AM79 °FPassing clouds.9 mph94%29.83 "Hg10 mi
11:53 PM
Sep 30
79 °FPassing clouds.13 mph90%29.83 "Hg10 mi
10:53 PM79 °FPartly cloudy.12 mph90%29.83 "Hg10 mi
9:53 PM79 °FPassing clouds.9 mph90%29.83 "Hg10 mi
8:53 PM80 °FMostly cloudy.9 mph87%29.82 "Hg10 mi
7:53 PM80 °FBroken clouds.No wind85%29.81 "Hg10 mi
6:53 PM81 °FSunny.3 mph82%29.81 "Hg10 mi
5:53 PM80 °FLight rain. Broken clouds.7 mph85%29.80 "Hg10 mi
4:53 PM83 °FBroken clouds.8 mph74%29.78 "Hg10 mi
4:04 PM83 °FPartly sunny.14 mph74%29.79 "Hg10 mi
2:53 PM83 °FSunny.8 mph74%29.80 "Hg10 mi
1:53 PM82 °FSunny.9 mph79%29.83 "Hg10 mi
12:53 PM79 °FScattered clouds.13 mph84%29.84 "Hg10 mi
12:02 PM78 °FBroken clouds.12 mph84%29.85 "Hg10 mi
11:53 AM78 °FMostly cloudy.15 mph84%29.85 "Hg10 mi
10:53 AM81 °FScattered clouds.8 mph82%29.85 "Hg10 mi
9:53 AM81 °FScattered clouds.8 mph77%29.85 "Hg10 mi
Weather by CustomWeather, © 2014

See weather overviewHow to use our weather pages